Year,Month,Day,Hour,Minute,Value (Times are PST for temperature in C)
2007,05,28,00,01,9.50
2007,05,28,00,02,9.50
2007,05,28,00,03,9.50
2007,05,28,00,04,9.50
2007,05,28,00,05,9.50
2007,05,28,00,06,9.40
2007,05,28,00,07,9.40
2007,05,28,00,08,9.40
2007,05,28,00,09,9.40
2007,05,28,00,10,9.40
2007,05,28,00,11,9.30
2007,05,28,00,12,9.30
2007,05,28,00,13,9.30
2007,05,28,00,14,9.30
2007,05,28,00,15,9.20
2007,05,28,00,16,9.20
2007,05,28,00,17,9.20
2007,05,28,00,18,9.20
2007,05,28,00,19,9.20
2007,05,28,00,20,9.20
2007,05,28,00,21,9.20
2007,05,28,00,22,9.20
2007,05,28,00,23,9.10
2007,05,28,00,24,9.10
2007,05,28,00,25,9.10
2007,05,28,00,26,9.10
2007,05,28,00,27,9.00
2007,05,28,00,28,9.00
2007,05,28,00,29,9.00
2007,05,28,00,30,9.00
2007,05,28,00,31,8.90
2007,05,28,00,32,8.90
2007,05,28,00,33,8.90
2007,05,28,00,34,8.90
2007,05,28,00,35,8.90
2007,05,28,00,36,8.90
2007,05,28,00,37,8.80
2007,05,28,00,38,8.80
2007,05,28,00,39,8.80
2007,05,28,00,40,8.80
2007,05,28,00,41,8.80
2007,05,28,00,42,8.80
2007,05,28,00,43,8.80
2007,05,28,00,44,8.80
2007,05,28,00,45,8.70
2007,05,28,00,46,8.70
2007,05,28,00,47,8.70
2007,05,28,00,48,8.70
2007,05,28,00,49,8.70
2007,05,28,00,50,8.70
2007,05,28,00,51,8.70
2007,05,28,00,52,8.60
2007,05,28,00,53,8.60
2007,05,28,00,54,8.50
2007,05,28,00,55,8.50
2007,05,28,00,56,8.50
2007,05,28,00,57,8.40
2007,05,28,00,58,8.40
2007,05,28,00,59,8.40
2007,05,28,01,00,8.30
2007,05,28,01,01,8.30
2007,05,28,01,02,8.30
2007,05,28,01,03,8.20
2007,05,28,01,04,8.20
2007,05,28,01,05,8.20
2007,05,28,01,06,8.20
2007,05,28,01,07,8.20
2007,05,28,01,08,8.20
2007,05,28,01,09,8.20
2007,05,28,01,10,8.20
2007,05,28,01,11,8.10
2007,05,28,01,12,8.10
2007,05,28,01,13,8.10
2007,05,28,01,14,8.10
2007,05,28,01,15,8.10
2007,05,28,01,16,8.00
2007,05,28,01,17,8.00
2007,05,28,01,18,8.00
2007,05,28,01,19,8.00
2007,05,28,01,20,7.90
2007,05,28,01,21,7.90
2007,05,28,01,22,7.90
2007,05,28,01,23,7.90
2007,05,28,01,24,7.80
2007,05,28,01,25,7.80
2007,05,28,01,26,7.80
2007,05,28,01,27,7.80
2007,05,28,01,28,7.80
2007,05,28,01,29,7.80
2007,05,28,01,30,7.80
2007,05,28,01,31,7.80
2007,05,28,01,32,7.70
2007,05,28,01,33,7.70
2007,05,28,01,34,7.70
2007,05,28,01,35,7.70
2007,05,28,01,36,7.60
2007,05,28,01,37,7.60
2007,05,28,01,38,7.60
2007,05,28,01,39,7.50
2007,05,28,01,40,7.50
2007,05,28,01,41,7.50
2007,05,28,01,42,7.50
2007,05,28,01,43,7.40
2007,05,28,01,44,7.40
2007,05,28,01,45,7.40
2007,05,28,01,46,7.40
2007,05,28,01,47,7.30
2007,05,28,01,48,7.30
2007,05,28,01,49,7.30
2007,05,28,01,50,7.30
2007,05,28,01,51,7.30
2007,05,28,01,52,7.30
2007,05,28,01,53,7.30
2007,05,28,01,54,7.20
2007,05,28,01,55,7.20
2007,05,28,01,56,7.20
2007,05,28,01,57,7.20
2007,05,28,01,58,7.20
2007,05,28,01,59,7.10
2007,05,28,02,00,7.10
2007,05,28,02,01,7.10
2007,05,28,02,02,7.10
2007,05,28,02,03,7.00
2007,05,28,02,04,7.00
2007,05,28,02,05,7.00
2007,05,28,02,06,6.90
2007,05,28,02,07,6.90
2007,05,28,02,08,6.90
2007,05,28,02,09,6.90
2007,05,28,02,10,6.80
2007,05,28,02,11,6.80
2007,05,28,02,12,6.80
2007,05,28,02,13,6.80
2007,05,28,02,14,6.80
2007,05,28,02,15,6.80
2007,05,28,02,16,6.80
2007,05,28,02,17,6.80
2007,05,28,02,18,6.80
2007,05,28,02,19,6.70
2007,05,28,02,20,6.70
2007,05,28,02,21,6.70
2007,05,28,02,22,6.70
2007,05,28,02,23,6.70
2007,05,28,02,24,6.70
2007,05,28,02,25,6.60
2007,05,28,02,26,6.60
2007,05,28,02,27,6.60
2007,05,28,02,28,6.60
2007,05,28,02,29,6.60
2007,05,28,02,30,6.60
2007,05,28,02,31,6.60
2007,05,28,02,32,6.60
2007,05,28,02,33,6.60
2007,05,28,02,34,6.60
2007,05,28,02,35,6.60
2007,05,28,02,36,6.60
2007,05,28,02,37,6.60
2007,05,28,02,38,6.60
2007,05,28,02,39,6.40
2007,05,28,02,40,6.60
2007,05,28,02,41,6.60
2007,05,28,02,42,6.40
2007,05,28,02,43,6.40
2007,05,28,02,44,6.40
2007,05,28,02,45,6.40
2007,05,28,02,46,6.40
2007,05,28,02,47,6.40
2007,05,28,02,48,6.40
2007,05,28,02,49,6.40
2007,05,28,02,50,6.40
2007,05,28,02,51,6.40
2007,05,28,02,52,6.40
2007,05,28,02,53,6.40
2007,05,28,02,54,6.40
2007,05,28,02,55,6.40
2007,05,28,02,56,6.40
2007,05,28,02,57,6.40
2007,05,28,02,58,6.40
2007,05,28,02,59,6.40
2007,05,28,03,00,6.40
2007,05,28,03,01,6.30
2007,05,28,03,02,6.30
2007,05,28,03,03,6.30
2007,05,28,03,04,6.30
2007,05,28,03,05,6.30
2007,05,28,03,08,6.20
2007,05,28,03,09,6.20
2007,05,28,03,10,6.20
2007,05,28,03,11,6.20
2007,05,28,03,12,6.20
2007,05,28,03,13,6.20
2007,05,28,03,14,6.20
2007,05,28,03,15,6.20
2007,05,28,03,16,6.20
2007,05,28,03,17,6.20
2007,05,28,03,18,6.20
2007,05,28,03,19,6.20
2007,05,28,03,20,6.20
2007,05,28,03,21,6.20
2007,05,28,03,22,6.20
2007,05,28,03,23,6.20
2007,05,28,03,24,6.20
2007,05,28,03,25,6.20
2007,05,28,03,26,6.20
2007,05,28,03,27,6.20
2007,05,28,03,28,6.20
2007,05,28,03,29,6.20
2007,05,28,03,30,6.10
2007,05,28,03,31,6.10
2007,05,28,03,32,6.10
2007,05,28,03,33,6.10
2007,05,28,03,34,6.10
2007,05,28,03,35,6.10
2007,05,28,03,36,6.00
2007,05,28,03,37,6.00
2007,05,28,03,38,6.00
2007,05,28,03,39,6.00
2007,05,28,03,40,6.00
2007,05,28,03,41,5.90
2007,05,28,03,42,5.90
2007,05,28,03,43,5.90
2007,05,28,03,44,5.90
2007,05,28,03,45,5.80
2007,05,28,03,46,5.80
2007,05,28,03,47,5.80
2007,05,28,03,48,5.80
2007,05,28,03,49,5.80
2007,05,28,03,50,5.80
2007,05,28,03,51,5.80
2007,05,28,03,52,5.90
2007,05,28,03,53,5.90
2007,05,28,03,54,5.90
2007,05,28,03,55,5.90
2007,05,28,03,56,5.90
2007,05,28,03,57,5.90
2007,05,28,03,58,6.00
2007,05,28,03,59,6.00
2007,05,28,04,00,6.00
2007,05,28,04,01,6.10
2007,05,28,04,02,6.10
2007,05,28,04,03,6.10
2007,05,28,04,04,6.10
2007,05,28,04,05,6.20
2007,05,28,04,06,6.20
2007,05,28,04,07,6.20
2007,05,28,04,08,6.20
2007,05,28,04,09,6.20
2007,05,28,04,10,6.20
2007,05,28,04,11,6.20
2007,05,28,04,12,6.30
2007,05,28,04,13,6.30
2007,05,28,04,14,6.30
2007,05,28,04,15,6.30
2007,05,28,04,16,6.30
2007,05,28,04,17,6.30
2007,05,28,04,18,6.30
2007,05,28,04,19,6.30
2007,05,28,04,20,6.30
2007,05,28,04,21,6.30
2007,05,28,04,22,6.30
2007,05,28,04,23,6.30
2007,05,28,04,24,6.30
2007,05,28,04,25,6.40
2007,05,28,04,26,6.40
2007,05,28,04,27,6.40
2007,05,28,04,28,6.40
2007,05,28,04,29,6.40
2007,05,28,04,30,6.40
2007,05,28,04,31,6.30
2007,05,28,04,32,6.40
2007,05,28,04,33,6.40
2007,05,28,04,34,6.40
2007,05,28,04,35,6.40
2007,05,28,04,36,6.40
2007,05,28,04,37,6.40
2007,05,28,04,38,6.40
2007,05,28,04,39,6.40
2007,05,28,04,40,6.40
2007,05,28,04,41,6.40
2007,05,28,04,42,6.40
2007,05,28,04,43,6.40
2007,05,28,04,44,6.40
2007,05,28,04,45,6.40
2007,05,28,04,46,6.40
2007,05,28,04,47,6.40
2007,05,28,04,48,6.40
2007,05,28,04,49,6.40
2007,05,28,04,50,6.40
2007,05,28,04,51,6.40
2007,05,28,04,52,6.40
2007,05,28,04,53,6.30
2007,05,28,04,54,6.30
2007,05,28,04,55,6.30
2007,05,28,04,56,6.30
2007,05,28,04,57,6.30
2007,05,28,04,58,6.20
2007,05,28,04,59,6.20
2007,05,28,05,00,6.20
2007,05,28,05,01,6.20
2007,05,28,05,02,6.20
2007,05,28,05,03,6.20
2007,05,28,05,04,6.20
2007,05,28,05,05,6.10
2007,05,28,05,06,6.10
2007,05,28,05,07,6.10
2007,05,28,05,08,6.10
2007,05,28,05,09,6.00
2007,05,28,05,10,6.00
2007,05,28,05,11,6.00
2007,05,28,05,12,6.00
2007,05,28,05,13,5.90
2007,05,28,05,14,5.90
2007,05,28,05,15,5.90
2007,05,28,05,16,5.90
2007,05,28,05,17,5.80
2007,05,28,05,18,5.80
2007,05,28,05,19,5.80
2007,05,28,05,20,5.70
2007,05,28,05,21,5.70
2007,05,28,05,22,5.70
2007,05,28,05,23,5.70
2007,05,28,05,24,5.70
2007,05,28,05,25,5.70
2007,05,28,05,26,5.70
2007,05,28,05,27,5.70
2007,05,28,05,28,5.70
2007,05,28,05,29,5.60
2007,05,28,05,30,5.60
2007,05,28,05,31,5.60
2007,05,28,05,32,5.60
2007,05,28,05,33,5.50
2007,05,28,05,34,5.50
2007,05,28,05,35,5.50
2007,05,28,05,36,5.50
2007,05,28,05,37,5.50
2007,05,28,05,38,5.50
2007,05,28,05,39,5.40
2007,05,28,05,40,5.40
2007,05,28,05,41,5.40
2007,05,28,05,42,5.40
2007,05,28,05,43,5.40
2007,05,28,05,44,5.40
2007,05,28,05,45,5.30
2007,05,28,05,46,5.30
2007,05,28,05,47,5.30
2007,05,28,05,48,5.30
2007,05,28,05,49,5.30
2007,05,28,05,50,5.30
2007,05,28,05,51,5.30
2007,05,28,05,52,5.30
2007,05,28,05,53,5.30
2007,05,28,05,54,5.30
2007,05,28,05,55,5.30
2007,05,28,05,56,5.30
2007,05,28,05,57,5.30
2007,05,28,05,58,5.30
2007,05,28,05,59,5.30
2007,05,28,06,00,5.30
2007,05,28,06,01,5.30
2007,05,28,06,02,5.30
2007,05,28,06,03,5.40
2007,05,28,06,04,5.40
2007,05,28,06,05,5.40
2007,05,28,06,06,5.40
2007,05,28,06,07,5.40
2007,05,28,06,08,5.40
2007,05,28,06,09,5.40
2007,05,28,06,10,5.40
2007,05,28,06,11,5.40
2007,05,28,06,12,5.40
2007,05,28,06,13,5.40
2007,05,28,06,14,5.50
2007,05,28,06,15,5.50
2007,05,28,06,16,5.50
2007,05,28,06,17,5.50
2007,05,28,06,18,5.50
2007,05,28,06,19,5.60
2007,05,28,06,20,5.60
2007,05,28,06,21,5.60
2007,05,28,06,22,5.70
2007,05,28,06,23,5.70
2007,05,28,06,24,5.70
2007,05,28,06,25,5.70
2007,05,28,06,26,5.70
2007,05,28,06,27,5.70
2007,05,28,06,28,5.70
2007,05,28,06,29,5.80
2007,05,28,06,30,5.80
2007,05,28,06,31,5.80
2007,05,28,06,32,5.90
2007,05,28,06,33,5.90
2007,05,28,06,34,5.90
2007,05,28,06,35,6.00
2007,05,28,06,36,6.00
2007,05,28,06,37,6.10
2007,05,28,06,38,6.10
2007,05,28,06,39,6.20
2007,05,28,06,40,6.20
2007,05,28,06,41,6.20
2007,05,28,06,42,6.20
2007,05,28,06,43,6.20
2007,05,28,06,44,6.20
2007,05,28,06,45,6.20
2007,05,28,06,46,6.20
2007,05,28,06,47,6.30
2007,05,28,06,48,6.30
2007,05,28,06,49,6.30
2007,05,28,06,50,6.30
2007,05,28,06,51,6.30
2007,05,28,06,52,6.30
2007,05,28,06,53,6.30
2007,05,28,06,54,6.40
2007,05,28,06,55,6.40
2007,05,28,06,56,6.40
2007,05,28,06,57,6.40
2007,05,28,06,58,6.40
2007,05,28,06,59,6.40
2007,05,28,07,00,6.40
2007,05,28,07,01,6.60
2007,05,28,07,02,6.60
2007,05,28,07,03,6.60
2007,05,28,07,04,6.60
2007,05,28,07,05,6.60
2007,05,28,07,06,6.70
2007,05,28,07,07,6.80
2007,05,28,07,08,6.80
2007,05,28,07,09,6.80
2007,05,28,07,10,6.80
2007,05,28,07,11,6.90
2007,05,28,07,12,6.90
2007,05,28,07,13,7.00
2007,05,28,07,14,7.00
2007,05,28,07,15,7.10
2007,05,28,07,16,7.20
2007,05,28,07,17,7.30
2007,05,28,07,18,7.30
2007,05,28,07,19,7.30
2007,05,28,07,20,7.40
2007,05,28,07,21,7.50
2007,05,28,07,22,7.50
2007,05,28,07,23,7.60
2007,05,28,07,24,7.70
2007,05,28,07,25,7.70
2007,05,28,07,26,7.80
2007,05,28,07,27,7.80
2007,05,28,07,28,7.80
2007,05,28,07,29,7.80
2007,05,28,07,30,7.90
2007,05,28,07,31,7.90
2007,05,28,07,32,7.90
2007,05,28,07,33,8.00
2007,05,28,07,34,8.00
2007,05,28,07,35,8.00
2007,05,28,07,36,8.00
2007,05,28,07,37,8.10
2007,05,28,07,38,8.10
2007,05,28,07,39,8.10
2007,05,28,07,40,8.20
2007,05,28,07,41,8.20
2007,05,28,07,42,8.20
2007,05,28,07,43,8.20
2007,05,28,07,44,8.20
2007,05,28,07,45,8.30
2007,05,28,07,46,8.30
2007,05,28,07,47,8.30
2007,05,28,07,48,8.40
2007,05,28,07,49,8.50
2007,05,28,07,50,8.50
2007,05,28,07,51,8.60
2007,05,28,07,52,8.70
2007,05,28,07,53,8.70
2007,05,28,07,54,8.70
2007,05,28,07,55,8.70
2007,05,28,07,56,8.80
2007,05,28,07,57,8.90
2007,05,28,07,58,8.90
2007,05,28,07,59,9.00
2007,05,28,08,00,9.10
2007,05,28,08,01,9.20
2007,05,28,08,02,9.20
2007,05,28,08,03,9.30
2007,05,28,08,04,9.30
2007,05,28,08,05,9.40
2007,05,28,08,06,9.50
2007,05,28,08,07,9.60
2007,05,28,08,11,9.80
2007,05,28,08,12,9.90
2007,05,28,08,13,9.90
2007,05,28,08,14,9.90
2007,05,28,08,15,10.10
2007,05,28,08,16,10.10
2007,05,28,08,17,10.10
2007,05,28,08,18,10.10
2007,05,28,08,19,10.10
2007,05,28,08,20,10.20
2007,05,28,08,21,10.20
2007,05,28,08,22,10.30
2007,05,28,08,23,10.30
2007,05,28,08,24,10.30
2007,05,28,08,25,10.30
2007,05,28,08,26,10.40
2007,05,28,08,27,10.40
2007,05,28,08,28,10.40
2007,05,28,08,29,10.60
2007,05,28,08,30,10.60
2007,05,28,08,31,10.60
2007,05,28,08,32,10.70
2007,05,28,08,33,10.80
2007,05,28,08,34,10.80
2007,05,28,08,35,10.90
2007,05,28,08,36,10.90
2007,05,28,08,37,10.90
2007,05,28,08,38,10.90
2007,05,28,08,39,10.90
2007,05,28,08,40,10.90
2007,05,28,08,41,10.90
2007,05,28,08,42,10.90
2007,05,28,08,43,10.90
2007,05,28,08,44,10.90
2007,05,28,08,45,10.90
2007,05,28,08,46,10.90
2007,05,28,08,47,11.10
2007,05,28,08,48,11.10
2007,05,28,08,49,11.10
2007,05,28,08,50,11.10
2007,05,28,08,51,11.10
2007,05,28,08,52,11.10
2007,05,28,08,53,11.10
2007,05,28,08,54,11.10
2007,05,28,08,55,11.20
2007,05,28,08,56,11.20
2007,05,28,08,57,11.30
2007,05,28,08,58,11.30
2007,05,28,08,59,11.40
2007,05,28,09,00,11.40
2007,05,28,09,01,11.40
2007,05,28,09,02,11.40
2007,05,28,09,03,11.40
2007,05,28,09,04,11.60
2007,05,28,09,05,11.60
2007,05,28,09,06,11.60
2007,05,28,09,07,11.60
2007,05,28,09,08,11.70
2007,05,28,09,09,11.80
2007,05,28,09,10,11.80
2007,05,28,09,11,11.80
2007,05,28,09,12,11.80
2007,05,28,09,13,11.90
2007,05,28,09,14,11.90
2007,05,28,09,15,11.90
2007,05,28,09,16,12.00
2007,05,28,09,17,12.10
2007,05,28,09,18,12.20
2007,05,28,09,19,12.20
2007,05,28,09,20,12.30
2007,05,28,09,21,12.30
2007,05,28,09,22,12.40
2007,05,28,09,23,12.50
2007,05,28,09,24,12.50
2007,05,28,09,25,12.60
2007,05,28,09,26,12.70
2007,05,28,09,27,12.80
2007,05,28,09,28,12.80
2007,05,28,09,29,12.80
2007,05,28,09,30,12.90
2007,05,28,09,31,13.00
2007,05,28,09,32,13.10
2007,05,28,09,33,13.20
2007,05,28,09,34,13.30
2007,05,28,09,35,13.40
2007,05,28,09,36,13.50
2007,05,28,09,37,13.60
2007,05,28,09,38,13.70
2007,05,28,09,39,13.80
2007,05,28,09,40,13.90
2007,05,28,09,41,13.90
2007,05,28,09,42,14.00
2007,05,28,09,43,14.10
2007,05,28,09,44,14.10
2007,05,28,09,45,14.10
2007,05,28,09,46,14.20
2007,05,28,09,47,14.20
2007,05,28,09,48,14.10
2007,05,28,09,49,14.00
2007,05,28,09,50,13.90
2007,05,28,09,51,13.90
2007,05,28,09,52,13.90
2007,05,28,09,53,13.90
2007,05,28,09,54,14.00
2007,05,28,09,55,14.00
2007,05,28,09,56,14.00
2007,05,28,09,57,14.00
2007,05,28,09,58,14.00
2007,05,28,09,59,14.00
2007,05,28,10,00,14.00
2007,05,28,10,01,14.10
2007,05,28,10,02,14.00
2007,05,28,10,03,14.00
2007,05,28,10,04,13.90
2007,05,28,10,05,13.80
2007,05,28,10,06,13.80
2007,05,28,10,07,13.70
2007,05,28,10,08,13.70
2007,05,28,10,09,13.70
2007,05,28,10,10,13.70
2007,05,28,10,11,13.60
2007,05,28,10,12,13.60
2007,05,28,10,13,13.50
2007,05,28,10,14,13.50
2007,05,28,10,15,13.60
2007,05,28,10,16,13.60
2007,05,28,10,17,13.60
2007,05,28,10,18,13.60
2007,05,28,10,19,13.60
2007,05,28,10,20,13.70
2007,05,28,10,21,13.70
2007,05,28,10,22,13.80
2007,05,28,10,23,13.90
2007,05,28,10,24,14.00
2007,05,28,10,25,14.10
2007,05,28,10,26,14.20
2007,05,28,10,27,14.30
2007,05,28,10,28,14.50
2007,05,28,10,29,14.60
2007,05,28,10,30,14.70
2007,05,28,10,31,14.80
2007,05,28,10,32,14.90
2007,05,28,10,33,15.10
2007,05,28,10,34,15.20
2007,05,28,10,35,15.30
2007,05,28,10,36,15.30
2007,05,28,10,37,15.40
2007,05,28,10,38,15.50
2007,05,28,10,39,15.60
2007,05,28,10,40,15.50
2007,05,28,10,41,15.50
2007,05,28,10,42,15.50
2007,05,28,10,43,15.50
2007,05,28,10,44,15.50
2007,05,28,10,45,15.50
2007,05,28,10,46,15.60
2007,05,28,10,47,15.50
2007,05,28,10,48,15.40
2007,05,28,10,49,15.30
2007,05,28,10,50,15.30
2007,05,28,10,51,15.30
2007,05,28,10,52,15.30
2007,05,28,10,53,15.30
2007,05,28,10,54,15.30
2007,05,28,10,55,15.30
2007,05,28,10,56,15.40
2007,05,28,10,57,15.50
2007,05,28,10,58,15.60
2007,05,28,10,59,15.70
2007,05,28,11,01,15.80
2007,05,28,11,02,15.80
2007,05,28,11,03,15.80
2007,05,28,11,04,15.70
2007,05,28,11,05,15.60
2007,05,28,11,06,15.60
2007,05,28,11,07,15.60
2007,05,28,11,08,15.50
2007,05,28,11,09,15.50
2007,05,28,11,10,15.50
2007,05,28,11,11,15.50
2007,05,28,11,12,15.50
2007,05,28,11,13,15.50
2007,05,28,11,14,15.50
2007,05,28,11,15,15.40
2007,05,28,11,16,15.30
2007,05,28,11,17,15.20
2007,05,28,11,18,15.20
2007,05,28,11,19,15.10
2007,05,28,11,20,15.20
2007,05,28,11,21,15.20
2007,05,28,11,22,15.30
2007,05,28,11,23,15.30
2007,05,28,11,24,15.20
2007,05,28,11,25,15.30
2007,05,28,11,26,15.30
2007,05,28,11,27,15.30
2007,05,28,11,28,15.30
2007,05,28,11,29,15.30
2007,05,28,11,30,15.30
2007,05,28,11,31,15.30
2007,05,28,11,32,15.40
2007,05,28,11,33,15.40
2007,05,28,11,34,15.40
2007,05,28,11,35,15.40
2007,05,28,11,36,15.50
2007,05,28,11,37,15.50
2007,05,28,11,38,15.60
2007,05,28,11,39,15.70
2007,05,28,11,40,15.70
2007,05,28,11,41,15.70
2007,05,28,11,42,15.70
2007,05,28,11,43,15.80
2007,05,28,11,44,15.80
2007,05,28,11,45,15.90
2007,05,28,11,46,16.10
2007,05,28,11,47,16.20
2007,05,28,11,48,16.30
2007,05,28,11,49,16.40
2007,05,28,11,50,16.70
2007,05,28,11,51,16.80
2007,05,28,11,52,16.90
2007,05,28,11,53,17.00
2007,05,28,11,54,17.20
2007,05,28,11,55,17.30
2007,05,28,11,56,17.30
2007,05,28,11,57,17.30
2007,05,28,11,58,17.40
2007,05,28,11,59,17.40
2007,05,28,12,00,17.40
2007,05,28,12,01,17.30
2007,05,28,12,02,17.20
2007,05,28,12,03,17.10
2007,05,28,12,04,17.10
2007,05,28,12,05,17.10
2007,05,28,12,06,17.20
2007,05,28,12,07,17.20
2007,05,28,12,08,17.30
2007,05,28,12,09,17.30
2007,05,28,12,10,17.30
2007,05,28,12,11,17.50
2007,05,28,12,12,17.60
2007,05,28,12,13,17.70
2007,05,28,12,14,17.80
2007,05,28,12,15,17.80
2007,05,28,12,16,17.90
2007,05,28,12,17,17.90
2007,05,28,12,18,18.10
2007,05,28,12,19,18.20
2007,05,28,12,20,18.20
2007,05,28,12,21,18.20
2007,05,28,12,22,18.20
2007,05,28,12,23,18.30
2007,05,28,12,24,18.30
2007,05,28,12,25,18.30
2007,05,28,12,26,18.20
2007,05,28,12,27,18.20
2007,05,28,12,28,18.20
2007,05,28,12,29,18.20
2007,05,28,12,30,18.20
2007,05,28,12,31,18.20
2007,05,28,12,32,18.20
2007,05,28,12,33,18.20
2007,05,28,12,34,18.30
2007,05,28,12,35,18.30
2007,05,28,12,36,18.40
2007,05,28,12,37,18.40
2007,05,28,12,38,18.40
2007,05,28,12,39,18.50
2007,05,28,12,40,18.50
2007,05,28,12,41,18.40
2007,05,28,12,42,18.40
2007,05,28,12,46,18.30
2007,05,28,12,47,18.40
2007,05,28,12,48,18.50
2007,05,28,12,49,18.60
2007,05,28,12,50,18.70
2007,05,28,12,51,18.80
2007,05,28,12,52,18.90
2007,05,28,12,53,18.90
2007,05,28,12,54,18.90
2007,05,28,12,55,18.90
2007,05,28,12,56,18.90
2007,05,28,12,57,19.10
2007,05,28,12,58,19.10
2007,05,28,12,59,19.10
2007,05,28,13,00,19.10
2007,05,28,13,01,19.10
2007,05,28,13,02,19.10
2007,05,28,13,03,19.20
2007,05,28,13,04,19.20
2007,05,28,13,05,19.30
2007,05,28,13,06,19.40
2007,05,28,13,07,19.40
2007,05,28,13,08,19.30
2007,05,28,13,09,19.30
2007,05,28,13,10,19.40
2007,05,28,13,11,19.40
2007,05,28,13,12,19.50
2007,05,28,13,13,19.50
2007,05,28,13,14,19.50
2007,05,28,13,15,19.50
2007,05,28,13,16,19.60
2007,05,28,13,17,19.60
2007,05,28,13,18,19.60
2007,05,28,13,19,19.50
2007,05,28,13,20,19.40
2007,05,28,13,21,19.20
2007,05,28,13,22,19.10
2007,05,28,13,23,19.10
2007,05,28,13,24,18.90
2007,05,28,13,25,18.90
2007,05,28,13,26,18.90
2007,05,28,13,27,18.90
2007,05,28,13,28,18.90
2007,05,28,13,29,18.90
2007,05,28,13,30,18.80
2007,05,28,13,31,18.70
2007,05,28,13,32,18.60
2007,05,28,13,33,18.50
2007,05,28,13,34,18.40
2007,05,28,13,35,18.40
2007,05,28,13,36,18.40
2007,05,28,13,37,18.50
2007,05,28,13,38,18.60
2007,05,28,13,39,18.60
2007,05,28,13,40,18.70
2007,05,28,13,41,18.80
2007,05,28,13,42,18.90
2007,05,28,13,43,18.90
2007,05,28,13,44,19.10
2007,05,28,13,45,19.10
2007,05,28,13,46,19.20
2007,05,28,13,47,19.40
2007,05,28,13,48,19.40
2007,05,28,13,49,19.50
2007,05,28,13,50,19.40
2007,05,28,13,51,19.40
2007,05,28,13,52,19.30
2007,05,28,13,53,19.30
2007,05,28,13,54,19.30
2007,05,28,13,55,19.30
2007,05,28,13,56,19.30
2007,05,28,13,57,19.30
2007,05,28,13,58,19.50
2007,05,28,13,59,19.60
2007,05,28,14,00,19.70
2007,05,28,14,01,19.80
2007,05,28,14,02,19.90
2007,05,28,14,03,19.90
2007,05,28,14,04,20.10
2007,05,28,14,05,20.20
2007,05,28,14,06,20.30
2007,05,28,14,07,20.40
2007,05,28,14,08,20.60
2007,05,28,14,09,20.80
2007,05,28,14,10,20.90
2007,05,28,14,11,21.10
2007,05,28,14,12,21.30
2007,05,28,14,13,21.30
2007,05,28,14,14,21.60
2007,05,28,14,15,21.60
2007,05,28,14,16,21.70
2007,05,28,14,17,21.80
2007,05,28,14,18,21.90
2007,05,28,14,19,22.00
2007,05,28,14,20,22.10
2007,05,28,14,21,22.10
2007,05,28,14,22,22.20
2007,05,28,14,23,22.30
2007,05,28,14,24,22.30
2007,05,28,14,25,22.30
2007,05,28,14,26,22.30
2007,05,28,14,27,22.30
2007,05,28,14,28,22.30
2007,05,28,14,29,22.30
2007,05,28,14,30,22.30
2007,05,28,14,31,22.30
2007,05,28,14,32,22.30
2007,05,28,14,33,22.10
2007,05,28,14,34,22.10
2007,05,28,14,35,22.10
2007,05,28,14,36,22.00
2007,05,28,14,37,22.00
2007,05,28,14,38,21.90
2007,05,28,14,39,21.90
2007,05,28,14,40,22.00
2007,05,28,14,41,21.90
2007,05,28,14,42,21.90
2007,05,28,14,43,21.90
2007,05,28,14,44,21.90
2007,05,28,14,45,21.90
2007,05,28,14,46,21.80
2007,05,28,14,47,21.80
2007,05,28,14,48,21.70
2007,05,28,14,49,21.60
2007,05,28,14,50,21.60
2007,05,28,14,51,21.30
2007,05,28,14,52,21.30
2007,05,28,14,53,21.30
2007,05,28,14,54,21.30
2007,05,28,14,55,21.30
2007,05,28,14,56,21.30
2007,05,28,14,57,21.30
2007,05,28,14,58,21.30
2007,05,28,14,59,21.30
2007,05,28,15,00,21.30
2007,05,28,15,01,21.30
2007,05,28,15,02,21.30
2007,05,28,15,03,21.30
2007,05,28,15,04,21.20
2007,05,28,15,05,21.20
2007,05,28,15,06,21.30
2007,05,28,15,07,21.30
2007,05,28,15,08,21.30
2007,05,28,15,09,21.30
2007,05,28,15,10,21.30
2007,05,28,15,11,21.20
2007,05,28,15,12,21.10
2007,05,28,15,13,21.00
2007,05,28,15,14,20.90
2007,05,28,15,15,20.90
2007,05,28,15,16,20.90
2007,05,28,15,17,21.00
2007,05,28,15,18,21.00
2007,05,28,15,19,21.00
2007,05,28,15,20,21.10
2007,05,28,15,21,21.10
2007,05,28,15,22,21.20
2007,05,28,15,23,21.30
2007,05,28,15,24,21.30
2007,05,28,15,25,21.30
2007,05,28,15,26,21.40
2007,05,28,15,27,21.60
2007,05,28,15,28,21.60
2007,05,28,15,29,21.70
2007,05,28,15,30,21.80
2007,05,28,15,31,21.90
2007,05,28,15,32,21.80
2007,05,28,15,33,21.70
2007,05,28,15,34,21.60
2007,05,28,15,35,21.30
2007,05,28,15,36,21.20
2007,05,28,15,37,20.90
2007,05,28,15,38,20.70
2007,05,28,15,39,20.60
2007,05,28,15,40,20.50
2007,05,28,15,41,20.50
2007,05,28,15,42,20.50
2007,05,28,15,43,20.60
2007,05,28,15,44,20.60
2007,05,28,15,45,20.60
2007,05,28,15,46,20.50
2007,05,28,15,47,20.40
2007,05,28,15,48,20.60
2007,05,28,15,49,20.80
2007,05,28,15,50,21.10
2007,05,28,15,51,21.30
2007,05,28,15,52,21.40
2007,05,28,15,53,21.60
2007,05,28,15,54,21.60
2007,05,28,15,55,21.60
2007,05,28,15,56,21.60
2007,05,28,15,57,21.80
2007,05,28,15,58,21.80
2007,05,28,15,59,21.90
2007,05,28,16,00,22.00
2007,05,28,16,01,22.00
2007,05,28,16,02,22.00
2007,05,28,16,03,22.10
2007,05,28,16,04,22.20
2007,05,28,16,05,22.20
2007,05,28,16,06,22.10
2007,05,28,16,07,22.10
2007,05,28,16,08,22.00
2007,05,28,16,09,22.10
2007,05,28,16,10,22.00
2007,05,28,16,11,21.90
2007,05,28,16,12,21.80
2007,05,28,16,13,21.60
2007,05,28,16,14,21.60
2007,05,28,16,15,21.60
2007,05,28,16,16,21.60
2007,05,28,16,17,21.80
2007,05,28,16,18,21.90
2007,05,28,16,19,22.10
2007,05,28,16,20,22.20
2007,05,28,16,21,22.30
2007,05,28,16,22,22.40
2007,05,28,16,23,22.40
2007,05,28,16,24,22.40
2007,05,28,16,25,22.60
2007,05,28,16,26,22.80
2007,05,28,16,27,22.90
2007,05,28,16,28,23.10
2007,05,28,16,29,23.30
2007,05,28,16,30,23.30
2007,05,28,16,31,23.30
2007,05,28,16,32,23.30
2007,05,28,16,33,23.20
2007,05,28,16,34,23.20
2007,05,28,16,35,23.20
2007,05,28,16,36,23.30
2007,05,28,16,37,23.30
2007,05,28,16,38,23.30
2007,05,28,16,39,23.30
2007,05,28,16,40,23.30
2007,05,28,16,41,23.30
2007,05,28,16,42,23.30
2007,05,28,16,43,23.30
2007,05,28,16,44,23.30
2007,05,28,16,45,23.40
2007,05,28,16,46,23.40
2007,05,28,16,47,23.60
2007,05,28,16,48,23.40
2007,05,28,16,49,23.30
2007,05,28,16,50,23.30
2007,05,28,16,51,23.30
2007,05,28,16,52,23.30
2007,05,28,16,53,23.20
2007,05,28,16,54,23.20
2007,05,28,16,55,23.20
2007,05,28,16,56,23.10
2007,05,28,16,57,22.90
2007,05,28,16,58,22.90
2007,05,28,16,59,22.90
2007,05,28,17,00,22.90
2007,05,28,17,01,22.90
2007,05,28,17,02,22.90
2007,05,28,17,03,22.90
2007,05,28,17,04,23.10
2007,05,28,17,05,23.10
2007,05,28,17,06,23.10
2007,05,28,17,07,23.10
2007,05,28,17,08,23.10
2007,05,28,17,09,23.20
2007,05,28,17,10,23.20
2007,05,28,17,11,23.30
2007,05,28,17,12,23.30
2007,05,28,17,13,23.30
2007,05,28,17,14,23.30
2007,05,28,17,15,23.30
2007,05,28,17,16,23.30
2007,05,28,17,17,23.30
2007,05,28,17,18,23.30
2007,05,28,17,19,23.30
2007,05,28,17,20,23.30
2007,05,28,17,21,23.30
2007,05,28,17,22,23.30
2007,05,28,17,23,23.20
2007,05,28,17,24,23.20
2007,05,28,17,25,23.20
2007,05,28,17,26,23.20
2007,05,28,17,27,23.10
2007,05,28,17,28,23.10
2007,05,28,17,29,22.90
2007,05,28,17,30,22.90
2007,05,28,17,31,22.90
2007,05,28,17,32,22.90
2007,05,28,17,33,22.90
2007,05,28,17,34,22.90
2007,05,28,17,35,22.90
2007,05,28,17,36,22.90
2007,05,28,17,37,22.90
2007,05,28,17,38,22.90
2007,05,28,17,39,22.90
2007,05,28,17,40,22.90
2007,05,28,17,41,22.90
2007,05,28,17,42,22.90
2007,05,28,17,43,22.90
2007,05,28,17,44,22.80
2007,05,28,17,45,22.70
2007,05,28,17,46,22.70
2007,05,28,17,47,22.60
2007,05,28,17,48,22.50
2007,05,28,17,49,22.50
2007,05,28,17,50,22.40